Regional Weather Roundup
Issued by NWS

Home | Current Version | Previous Version | Text Only | Print | Product List | Glossary Off
Versions: 1 2 3 4 5 6 7 8 9 10 11 12 13 14 15 16 17 18 19 20 21 22 23 24 25 26 27 28 29 30 31 32 33 34 35 36 37 38 39 40 41 42 43 44 45 46 47 48 49 50

000
ASUS43 KDMX 040607
RWRIA

WEATHER ROUNDUP FOR IOWA
NATIONAL WEATHER SERVICE DES MOINES IA
100 AM CDT SAT JUL 04 2015

NOTE: "FAIR" INDICATES FEW OR NO CLOUDS BELOW 12,000 FEET WITH NO
SIGNIFICANT WEATHER AND/OR OBSTRUCTIONS TO VISIBILITY.

* - THESE STATIONS ARE NOT NWS STATIONS...THUS NOT UNDER NWS
QUALITY CONTROL.  THEY ALSO DO NOT REPORT WEATHER SUCH
AS PRECIPITATION OR FOG.

IAZ001>003-012>014-020>022-031>034-043>046-040700-
   NORTHWEST IOWA

CITY           SKY/WX    TMP DP  RH WIND       PRES   REMARKS
CARROLL *      CLOUDY    57  55  94 CALM      29.99S
CHEROKEE *     CLEAR     58  58  98 CALM      29.98S
DENISON *      CLOUDY    57  55  94 E5        29.98S
LE MARS *        N/A     63  57  82 S3        29.98F
ORANGE CITY *  CLEAR     61  55  82 CALM      29.98S
SHELDON *      MOCLDY    61  61 100 CALM      29.97S
SIOUX CITY     CLEAR     62  57  83 E6        29.97F
6HR MIN TEMP:  62; 6HR MAX TEMP:  78;

SPENCER        CLEAR     60  55  83 SW6       29.98S
6HR MIN TEMP:  60; 6HR MAX TEMP:  77;

STORM LAKE *   CLEAR     61  55  82 SW6       30.00S
$$

IAZ055>058-069>071-079>083-090>094-040700-
   SOUTHWEST IOWA

CITY           SKY/WX    TMP DP  RH WIND       PRES   REMARKS
ATLANTIC *     CLOUDY    55  55 100 N3        30.00R
AUDUBON *      CLEAR     54  52  94 CALM      30.01S
CLARINDA *     CLEAR     57  57 100 CALM      30.01S
COUNCIL BLFS * PTCLDY    64  55  72 SE5       29.99F
CRESTON *      CLEAR     63  57  82 CALM      30.00S
HARLAN  *      CLEAR     55  55 100 CALM      30.03S
LAMONI         CLEAR     66  55  67 SE3       30.00R
6HR MIN TEMP:  64; 6HR MAX TEMP:  77;

RED OAK *      CLOUDY    57  55  94 CALM      30.00S
SHENANDOAH *   PTCLDY    59  57  94 CALM      30.00S
$$

IAZ047>049-059>061-072>074-084-040700-
   CENTRAL IOWA

CITY           SKY/WX    TMP DP  RH WIND       PRES   REMARKS
AMES           CLEAR     59  56  89 CALM      29.98S
6HR MIN TEMP:  59; 6HR MAX TEMP:  76; 6HR PCP: TRACE;

ANKENY *       CLEAR     59  59 100 CALM      29.98S
CHARITON *     CLOUDY    63  57  82 CALM      29.99S
DES MOINES     CLEAR     67  57  70 CALM      29.98S
6HR MIN TEMP:  66; 6HR MAX TEMP:  78;

GRINNELL*      CLEAR     63  56  80 SW3       30.00R
KNOXVILLE *    CLEAR     63  55  77 CALM      29.98S
MARSHALLTOWN   CLEAR     62  59  90 CALM      29.98S
6HR MIN TEMP:  62; 6HR MAX TEMP:  76;

PELLA *        CLEAR     60  60 100 CALM      30.00S
PERRY *          N/A     59  55  88 CALM      29.99S
$$

IAZ004>006-015-016-023>025-035-036-040700-
   NORTH CENTRAL IOWA

CITY           SKY/WX    TMP DP  RH WIND       PRES   REMARKS
ALGONA *       PTCLDY    63  59  88 SW7       29.98R
CLARION *      CLEAR     59  54  82 S3        29.98S
ESTHERVILLE    CLEAR     61  58  90 SW6       29.97S
6HR MIN TEMP:  60; 6HR MAX TEMP:  75;

FORT DODGE *   CLEAR     57  52  82 CALM      29.99S
MASON CITY     CLEAR     62  53  72 SW5       29.98S
6HR MIN TEMP:  60; 6HR MAX TEMP:  76;

FOREST CITY *  CLEAR     57  55  94 CALM      29.98S
IOWA FALLS *     N/A     59  55  88 SW6       29.99S
$$

IAZ007>011-017>019-026>030-037>042-050>054-066-040700-
   NORTHEAST IOWA

CITY           SKY/WX    TMP DP  RH WIND       PRES   REMARKS
CEDAR RAPIDS   CLEAR     59  58  96 CALM      29.97S
6HR MIN TEMP:  59; 6HR MAX TEMP:  74;

CHARLES CITY * CLEAR     59  59 100 S5        29.98R
CLINTON *      CLEAR     59  55  88 CALM      29.99S
DECORAH *        N/A    N/A N/A N/A MISG        N/A
DUBUQUE        CLEAR     58  54  86 CALM      29.97F
6HR MIN TEMP:  58; 6HR MAX TEMP:  75;

MONTICELLO *   CLEAR     57  57 100 CALM      29.97S
OELWEIN *      CLEAR     61  57  88 S3        29.98S
WATERLOO       CLEAR     60  58  92 CALM      29.96S
6HR MIN TEMP:  60; 6HR MAX TEMP:  77;

$$

IAZ064-065-067-068-078-040700-
   EAST CENTRAL IOWA

CITY           SKY/WX    TMP DP  RH WIND       PRES   REMARKS
DAVENPORT      CLEAR     58  56  93 CALM      29.98R
6HR MIN TEMP:  58; 6HR MAX TEMP:  75;

IOWA CITY      CLEAR     61  57  87 CALM      29.99R
6HR MIN TEMP:  61; 6HR MAX TEMP:  76;

MT. PLEASANT * CLEAR     64  60  86 CALM      29.98S
MUSCATINE *    CLEAR     61  57  88 CALM      29.98R
QUAD CITIES    CLEAR     60  58  92 CALM      29.97R FOG
6HR MIN TEMP:  60; 6HR MAX TEMP:  76;

$$

IAZ062-063-075>077-085>089-095>099-040700-
   SOUTHEAST IOWA

CITY           SKY/WX    TMP DP  RH WIND       PRES   REMARKS
BURLINGTON     CLEAR     60  59  96 CALM      29.98R FOG
6HR MIN TEMP:  60; 6HR MAX TEMP:  76;

FAIRFIELD *    CLEAR     59  57  94 CALM      29.99R
FORT MADISON * CLEAR     63  61  94 CALM      29.99R
KEOKUK *       CLEAR     63  63 100 CALM      29.97S
OSKALOOSA *      N/A     55  54  94 CALM      29.99S
CENTERVILLE *  CLEAR     59  59 100 CALM      30.01S
OTTUMWA        CLEAR     60  57  89 CALM      29.97S
6HR MIN TEMP:  58; 6HR MAX TEMP:  75;

WASHINGTON *   CLEAR     59  57  94 CALM      30.00R
$$

ABBREVIATIONS USED IN REMARKS
   TC - TEMPERATURES IN CELSIUS
  WCI - WIND CHILL INDEX
   HX - HEAT INDEX
  VSB - VISIBILITY
$$



USA.gov is the U.S. government's official web portal to all federal, state and local government web resources and services.